Theta_e
297 296 296 295 295 295 295 295 295 296 296 296 297 297 296 296 296 296 295 295 295 294 294 293 293 293 293 293 293 293 293 293 293 293 293 293 292 292 293 293 293 293 295 302 306 308 310 311 312 312 313 313 312 312 313 314 313 313 314 315 315 315 314 314 314 314 315 315 316 316 316 316 316 315 315 314 314 316 317 319 321 323 325 327 328
297 296 296 295 295 295 295 295 295 296 296 296 295 296 296 296 295 296 295 295 294 294 294 293 293 293 293 293 293 293 293 293 293 293 293 292 292 292 293 293 294 294 296 300 304 307 308 309 310 311 311 312 311 311 312 312 311 312 313 314 314 313 312 312 313 313 314 314 314 314 315 315 315 315 315 314 313 313 314 316 318 320 321 323 325
296 296 296 295 295 295 295 295 295 295 295 295 295 295 295 295 295 295 295 295 294 294 294 294 294 293 293 293 293 293 293 293 293 293 292 292 292 292 293 294 295 295 296 298 302 305 306 307 307 308 309 309 308 310 311 310 309 310 313 313 313 312 311 311 312 312 312 312 312 312 313 313 314 314 315 315 314 313 313 314 317 319 319 319 321
296 296 296 295 295 295 295 295 295 294 294 294 294 294 294 294 294 294 295 294 294 294 294 294 294 293 293 293 293 293 293 293 292 292 292 292 292 293 294 295 295 295 295 295 297 300 302 303 304 305 306 306 307 309 309 308 308 310 312 312 311 311 310 309 311 311 310 310 310 311 311 312 312 313 313 314 314 314 314 314 316 317 316 317 318
296 296 295 295 295 295 295 294 294 294 293 293 294 294 294 294 294 294 294 294 295 295 294 294 294 294 294 293 293 293 293 293 292 292 292 292 293 294 295 295 295 294 294 294 294 295 296 298 299 300 301 303 306 307 307 307 307 309 310 310 310 309 309 308 309 310 309 309 309 310 310 309 310 311 312 313 313 314 314 314 315 315 315 315 316
295 295 295 295 295 294 294 294 293 293 293 293 294 294 294 294 295 295 295 295 295 295 295 294 294 294 294 294 294 294 293 293 292 292 292 293 294 295 295 295 295 294 294 294 293 293 293 293 294 294 296 300 303 304 305 305 305 307 308 308 308 308 307 307 308 309 308 307 307 307 308 308 309 310 311 312 312 312 313 314 314 314 315 315 315
295 295 295 295 295 294 294 293 293 293 293 293 293 294 294 295 295 295 295 295 295 295 295 294 294 294 294 294 294 294 293 293 292 292 292 293 294 295 294 294 294 294 293 292 292 292 292 291 291 291 291 295 300 302 303 304 304 305 306 306 306 306 306 305 307 307 306 305 305 306 307 307 308 309 310 310 311 311 311 312 313 314 314 314 315
295 295 295 295 294 294 294 293 292 292 293 293 293 294 294 295 295 295 295 295 295 295 295 295 294 294 294 294 294 294 293 292 292 292 293 294 294 293 292 292 292 292 292 292 291 291 291 290 290 290 289 291 296 299 300 300 301 303 304 304 305 305 305 305 305 305 305 304 305 306 307 307 308 309 309 309 309 310 310 311 311 312 313 313 314
296 295 295 295 294 294 293 292 292 292 293 293 293 293 294 295 295 295 294 295 295 295 295 294 294 294 294 294 294 293 292 292 292 292 293 294 293 292 291 290 290 290 291 291 291 290 290 290 289 289 289 289 292 295 295 294 295 299 302 303 304 305 304 304 304 304 304 304 305 305 306 307 307 308 308 308 308 309 309 310 310 310 311 312 312
296 295 295 294 294 293 293 292 292 292 292 293 293 293 293 294 295 295 294 294 294 294 294 294 293 293 294 293 293 292 292 291 292 292 293 293 292 291 290 290 290 290 290 290 290 290 289 289 289 288 288 288 289 290 291 289 290 294 299 301 302 303 303 302 303 303 303 304 304 305 305 306 306 306 307 307 307 308 308 309 309 309 310 310 311
296 295 295 294 294 293 292 292 292 292 292 292 292 292 293 293 294 295 294 293 293 293 293 293 293 293 293 293 292 291 291 291 292 292 292 291 290 290 290 289 289 289 290 289 289 289 289 289 288 288 288 288 288 288 288 289 288 290 293 296 299 300 301 302 302 303 303 303 303 304 304 304 305 305 305 306 306 307 307 307 308 308 308 309 309
295 295 295 294 294 293 292 292 291 291 292 292 292 293 293 293 293 294 294 293 292 292 293 293 293 292 292 292 291 291 291 291 291 291 290 289 289 289 289 289 289 289 289 288 288 288 288 288 288 288 288 288 288 288 288 288 288 289 290 292 295 299 300 301 302 302 302 302 302 303 303 303 304 304 304 305 305 306 306 306 307 307 307 308 308
296 295 295 295 294 293 292 291 291 291 292 292 293 293 292 292 292 292 293 293 292 292 292 293 292 292 291 291 290 290 290 291 291 290 289 289 289 289 289 289 289 289 288 288 288 288 287 287 287 287 288 287 287 287 287 288 288 288 289 289 293 298 300 300 301 301 301 301 301 301 302 302 303 303 303 304 304 304 305 305 306 306 306 307 307
296 295 296 296 295 294 292 292 291 291 291 291 291 292 292 292 292 292 292 292 292 292 292 293 293 292 291 291 291 290 289 290 290 290 289 289 289 289 289 289 289 288 288 288 287 287 287 287 287 287 287 287 286 287 287 287 287 288 288 288 291 295 298 299 299 300 300 300 300 300 301 301 301 302 302 303 303 303 304 304 304 305 305 306 306
296 296 296 296 296 294 293 292 291 291 291 290 290 291 291 291 292 292 292 291 291 292 292 293 293 292 291 293 294 293 291 289 290 290 289 289 289 288 289 289 289 288 288 288 287 287 287 287 287 286 287 286 286 286 287 287 287 287 287 287 288 291 294 297 297 297 298 299 299 299 300 300 300 300 301 301 301 302 302 303 303 303 304 304 305
295 296 296 296 296 295 293 292 291 291 291 290 290 291 291 291 291 292 293 292 291 291 292 292 293 293 293 292 290 291 294 291 288 289 289 289 288 288 289 288 288 288 288 288 287 287 287 286 286 286 286 286 286 286 287 287 287 287 287 287 287 287 289 292 293 295 296 297 297 297 298 298 298 299 299 299 299 300 300 301 301 302 302 303 303
295 295 296 296 297 296 293 292 291 291 290 290 291 291 291 292 292 292 293 293 293 291 291 291 292 293 294 294 291 293 298 292 287 290 289 288 288 287 288 288 288 288 288 287 287 286 286 286 286 286 286 286 286 286 286 286 287 286 286 286 286 286 286 287 289 291 293 293 292 293 295 296 296 297 297 298 298 298 299 299 300 301 301 302 302
295 295 296 296 296 296 294 292 291 291 291 290 291 291 291 291 292 292 293 294 294 293 292 290 291 292 292 295 294 294 296 290 290 292 288 287 288 287 288 288 287 288 287 287 287 286 286 285 285 285 286 286 286 286 286 286 286 286 286 286 285 285 285 285 286 287 288 288 288 289 292 294 295 295 296 296 297 297 298 299 300 300 301 301 302
295 295 296 296 296 296 294 292 291 291 291 290 290 290 291 292 292 292 292 293 294 293 293 291 290 290 290 291 291 291 291 290 292 293 291 290 287 286 288 288 287 288 287 287 286 286 285 285 285 285 285 286 285 285 285 285 285 285 285 285 285 284 284 284 285 285 286 286 286 287 290 292 293 293 294 295 295 296 297 298 299 299 300 300 301
296 296 295 295 296 295 294 292 291 291 291 290 290 290 291 291 291 291 291 292 293 294 293 292 291 290 289 289 289 289 288 288 289 290 293 295 290 288 288 287 287 287 287 286 286 285 285 285 285 285 285 285 285 285 285 285 285 285 285 284 284 284 284 284 284 284 285 285 285 286 288 290 291 292 293 293 294 295 296 297 297 298 299 299 300
296 296 296 295 295 295 294 292 291 291 291 290 290 290 290 291 291 291 291 291 292 293 293 293 293 292 290 288 287 287 287 287 286 286 289 292 293 292 288 286 287 287 286 286 285 285 284 285 285 285 285 285 284 285 284 284 284 284 284 284 284 283 283 283 283 284 284 284 285 285 287 289 290 291 291 292 293 294 295 295 296 297 297 298 298
296 295 295 295 295 294 293 292 291 291 291 290 290 289 290 290 291 291 291 292 291 292 293 293 293 292 292 290 288 286 285 285 284 284 285 287 290 290 285 285 287 286 285 285 284 285 284 284 285 285 285 285 284 284 284 284 284 284 284 284 283 283 282 282 282 283 283 284 284 285 286 288 288 289 289 290 291 292 293 294 295 295 296 296 297
295 295 295 295 294 294 293 292 291 291 290 290 290 289 290 289 290 290 291 291 291 291 291 292 292 291 291 291 290 290 289 288 287 285 285 286 288 288 283 284 285 284 285 285 284 284 284 284 285 284 284 284 284 284 283 284 284 284 283 283 283 283 282 282 282 282 283 284 285 285 286 287 287 287 288 289 290 291 292 293 293 294 295 295 296
295 295 295 294 294 293 292 292 291 290 290 290 290 289 289 289 289 290 290 290 291 291 291 290 291 290 290 290 290 290 290 290 289 288 287 287 288 287 282 283 285 283 283 284 284 284 284 284 284 284 284 284 283 283 283 283 283 283 283 283 283 282 281 282 281 282 283 285 285 285 286 286 286 286 287 288 289 290 291 292 292 293 294 294 295
294 294 294 294 293 293 292 292 291 291 290 290 290 289 289 289 289 289 289 290 290 290 291 290 290 290 290 290 289 289 288 288 288 288 287 286 285 285 282 283 284 283 282 283 283 284 284 284 284 284 283 283 283 283 283 283 283 283 283 283 282 281 281 281 281 282 283 283 284 285 285 285 285 286 286 287 288 289 289 290 291 292 292 293 293
294 295 295 294 293 293 293 292 292 291 290 290 289 289 289 289 288 288 288 289 289 289 290 290 290 289 289 289 288 288 287 287 287 287 287 286 285 285 283 282 282 280 281 282 282 283 284 284 283 283 283 283 283 283 283 283 283 283 282 282 282 281 281 281 281 282 282 282 283 284 284 284 284 285 286 286 287 288 288 289 290 290 291 291 291
295 295 294 294 293 293 293 292 292 291 290 289 289 289 289 288 288 288 288 288 288 288 289 289 289 289 288 288 288 287 286 286 286 286 286 287 286 285 285 286 287 284 281 281 281 282 283 283 283 283 283 283 283 283 283 283 283 282 282 282 281 280 281 281 281 281 281 281 283 283 282 283 284 284 285 285 286 287 287 288 289 289 290 289 289
295 294 294 294 294 293 292 292 291 291 290 289 289 289 289 288 288 287 287 287 288 287 288 288 288 288 287 287 287 286 286 286 286 286 286 286 286 286 285 286 289 290 289 287 284 282 282 282 282 282 282 282 283 283 283 283 282 282 281 281 280 280 281 281 281 280 280 281 281 281 282 283 283 284 284 285 285 286 286 287 288 288 288 288 289
295 294 294 293 293 293 292 292 291 290 290 289 289 289 288 288 287 287 287 287 287 287 287 287 287 287 287 286 286 286 286 285 285 285 285 285 284 285 285 284 285 289 294 296 290 283 282 282 282 282 282 282 282 282 282 282 281 281 280 280 280 280 280 280 280 280 280 280 280 280 281 283 283 283 284 285 285 285 286 287 287 287 287 288 288
294 294 294 293 293 293 292 292 291 290 290 289 289 288 288 288 287 287 287 287 286 286 286 286 286 286 286 285 285 285 285 285 285 284 284 284 284 283 284 284 284 285 287 291 290 283 280 282 282 281 282 282 282 281 281 281 280 280 279 279 279 279 279 279 279 280 280 279 280 280 281 281 281 282 284 284 285 285 286 286 286 286 286 287 287
294 293 293 293 293 292 292 292 291 290 289 289 288 288 288 288 287 287 286 286 286 286 286 286 286 285 285 285 285 284 284 284 284 284 283 283 283 283 283 282 283 283 282 284 288 286 282 281 281 281 281 281 282 281 281 281 280 279 279 279 279 279 278 279 279 279 279 279 280 280 280 281 281 282 283 284 284 285 285 285 285 286 286 286 287
293 293 293 293 292 292 292 291 291 290 289 289 288 288 287 287 287 286 286 286 286 286 286 285 285 285 285 284 284 284 284 284 283 283 283 282 282 282 282 281 281 282 281 281 284 285 282 281 281 281 281 281 281 281 281 280 280 280 280 280 280 279 279 279 279 278 279 279 279 280 280 280 281 282 283 283 283 284 284 284 284 285 285 285 286
293 293 293 293 292 292 292 291 291 290 289 289 288 288 287 287 286 286 286 286 286 285 285 285 285 285 284 284 284 284 283 283 283 282 282 282 281 281 281 281 280 280 280 280 280 281 281 281 280 280 280 279 279 279 279 279 279 279 280 280 280 280 279 279 279 279 279 279 279 280 280 280 281 282 282 282 282 283 283 284 284 284 284 285 285
293 293 293 292 292 292 292 291 291 290 289 289 289 288 287 286 286 286 286 285 285 285 285 285 285 284 284 283 283 283 283 283 282 282 282 281 281 280 280 280 280 280 279 279 279 278 279 280 279 278 278 277 277 277 277 277 277 278 278 279 279 279 279 279 279 279 279 279 279 280 280 280 281 281 282 282 282 282 282 283 283 283 284 284 284
292 292 292 292 292 291 291 291 290 290 289 289 288 288 287 286 286 285 285 285 285 285 284 285 285 284 283 283 283 283 282 282 282 282 282 281 281 280 280 279 280 279 279 279 278 277 277 277 277 276 275 275 275 276 276 276 276 276 277 277 278 278 278 278 278 278 278 278 279 279 279 279 280 280 280 281 281 281 282 282 282 283 283 284 284
291 291 291 291 291 291 290 290 290 289 289 289 288 288 287 287 286 285 285 285 285 285 285 285 285 284 283 283 283 283 282 282 282 281 281 281 280 280 280 279 279 279 278 277 277 277 276 275 275 275 275 275 275 275 275 275 276 276 276 277 277 278 278 278 277 277 277 278 278 278 279 279 279 279 280 280 280 281 281 281 282 282 283 283 283
291 291 291 291 290 290 290 290 290 290 289 288 288 287 287 286 286 285 285 284 284 284 284 284 284 284 284 283 283 283 282 282 281 281 281 280 280 280 279 279 279 278 277 276 276 275 275 274 274 274 274 274 275 275 275 276 276 276 277 277 277 277 277 277 277 277 277 277 277 278 278 278 278 279 279 280 280 280 281 281 282 282 282 282 282
290 290 290 290 290 290 290 290 289 289 289 288 287 287 286 286 285 284 284 284 284 284 284 284 284 284 284 284 283 283 282 282 282 282 281 280 280 280 279 278 278 277 276 275 275 274 274 273 273 274 274 275 275 275 276 276 277 277 277 277 277 277 277 277 277 277 277 277 277 277 278 278 278 278 279 279 279 280 280 281 281 281 281 281 281
290 290 289 289 289 289 289 289 289 288 288 287 287 286 286 285 285 284 284 283 283 283 283 283 283 283 283 283 283 283 283 283 283 282 282 281 280 279 279 278 277 276 276 275 274 274 274 273 273 274 274 275 276 276 276 277 277 277 277 277 277 277 277 276 276 276 277 277 277 277 277 278 278 278 278 278 279 279 279 280 280 280 280 280 280
290 290 289 289 289 289 288 288 288 288 287 287 287 286 285 285 284 284 283 283 283 282 282 283 283 283 283 283 283 283 283 283 283 283 282 281 280 279 278 277 276 276 276 275 274 274 274 274 274 274 275 276 276 277 277 277 277 277 277 277 276 276 276 276 276 277 277 277 277 277 277 277 277 277 277 277 277 278 278 278 278 278 278 279 279
290 289 289 288 288 288 288 287 287 287 287 287 286 286 285 284 284 283 283 282 282 282 282 282 281 281 281 282 282 282 283 283 282 282 282 281 281 280 278 277 276 276 276 275 275 274 274 274 275 275 276 276 277 277 278 278 277 277 276 276 276 276 276 276 277 277 277 277 277 277 277 277 277 276 276 276 276 277 277 277 277 277 277 278 279
289 288 288 288 287 287 287 287 287 286 286 286 286 286 285 285 284 283 282 282 282 282 281 280 280 280 280 281 281 282 282 282 281 281 281 280 280 280 279 278 278 277 276 275 275 275 275 275 275 276 276 277 277 278 277 277 277 276 276 276 276 276 277 277 277 277 277 277 277 277 276 276 275 275 275 276 276 276 276 276 276 277 277 278 279
288 288 287 287 287 287 287 286 286 286 286 286 285 285 285 285 284 283 282 282 281 281 281 280 280 280 279 280 280 280 281 280 280 280 279 279 278 278 278 278 278 277 277 276 275 275 275 275 276 276 277 277 277 277 277 277 276 276 276 276 276 277 277 277 277 278 277 277 276 275 275 274 274 275 275 275 275 275 275 275 276 277 278 278 279
288 287 287 287 286 286 286 286 286 286 286 285 285 285 284 284 284 284 282 282 281 280 280 280 279 279 279 279 279 279 279 279 279 279 278 277 277 277 277 277 277 277 277 277 277 276 276 276 277 277 277 277 277 277 276 276 276 276 276 276 277 277 277 278 277 277 277 276 275 274 273 274 274 274 274 274 274 275 275 275 276 276 277 278 278
287 287 286 286 286 286 286 286 285 285 285 285 284 284 284 284 284 283 282 281 281 280 280 279 279 279 278 278 278 278 278 278 278 278 277 277 277 277 277 276 277 277 277 278 278 278 277 277 277 277 277 277 277 276 276 276 276 276 277 277 277 277 277 277 276 276 275 274 273 273 273 273 274 274 274 274 274 274 274 274 275 276 277 278 278
286 286 286 285 285 285 285 285 285 285 285 284 284 284 284 284 283 283 282 281 280 280 279 279 279 278 279 279 278 277 277 277 277 277 277 277 277 277 277 277 277 278 278 279 279 279 278 278 278 277 277 276 276 276 276 276 277 277 277 277 277 276 275 275 274 274 273 273 272 272 272 273 273 273 273 273 274 274 274 274 275 276 276 277 277
286 286 285 285 285 285 285 284 284 284 284 284 283 283 283 284 284 283 282 281 280 279 279 278 278 278 278 279 279 278 277 277 277 277 277 277 277 277 278 278 278 278 278 278 278 278 278 277 277 276 276 276 276 277 277 277 277 277 277 277 276 275 274 273 272 272 272 272 272 272 272 272 272 272 272 273 273 273 274 274 274 274 275 275 276
286 285 285 285 284 284 284 284 284 284 283 283 283 283 284 284 284 283 281 280 279 278 278 278 277 277 277 277 278 278 277 277 277 277 277 277 277 277 278 278 277 277 277 277 277 276 276 276 276 276 276 277 277 277 277 277 277 277 276 275 275 274 272 271 270 271 271 271 272 271 271 271 272 272 272 273 273 273 273 273 273 273 274 275 275
285 285 284 284 284 284 284 284 283 283 283 282 282 283 284 284 284 283 281 279 278 278 277 277 276 276 276 277 277 277 277 277 277 277 277 277 277 277 277 277 276 276 275 275 275 276 276 276 276 277 277 277 277 277 277 276 276 275 274 273 272 272 270 269 269 270 270 270 271 271 270 271 271 272 272 273 272 272 272 272 273 273 273 274 274
284 284 284 284 284 283 283 283 283 282 282 282 282 283 284 284 284 283 280 278 277 277 277 276 276 276 276 276 276 277 277 277 277 278 278 277 276 276 276 275 275 275 275 275 275 275 276 276 277 277 276 276 275 275 275 274 274 273 272 271 271 270 269 268 268 269 269 270 271 271 271 271 272 272 272 272 272 272 272 272 272 272 272 273 273
284 284 284 283 283 283 283 283 282 282 282 281 281 283 284 285 284 283 280 278 277 276 276 276 276 276 276 276 276 276 277 277 277 278 278 277 276 275 275 274 274 274 275 275 275 275 276 276 276 275 274 273 273 273 273 273 272 272 271 271 270 269 268 268 268 268 268 269 271 271 271 271 271 271 271 271 271 271 272 272 272 272 272 272 272
Wind_Speed
28 27 26 25 25 24 24 23 22 20 19 18 16 15 14 13 12 11 10 9 8 7 6 5 4 4 2 2 2 2 3 3 4 4 4 3 3 2 2 2 2 2 5 6 7 9 10 10 11 11 10 10 11 12 12 12 13 13 13 12 12 13 14 15 15 15 15 15 15 15 14 15 15 14 12 11 11 12 13 13 13 13 13 13 13
29 28 27 27 27 26 25 24 23 21 20 18 17 15 14 14 13 11 10 9 8 7 6 5 4 3 2 1 1 2 3 4 5 4 4 3 2 2 2 3 4 5 6 7 8 10 11 11 11 11 10 10 11 12 12 11 13 13 13 12 12 13 15 16 15 15 15 16 16 16 15 15 16 16 15 13 11 11 12 13 14 14 14 13 14
29 29 29 29 28 28 27 25 24 22 20 19 17 16 14 13 12 11 10 9 8 7 6 4 3 2 1 1 2 3 4 5 5 4 4 2 1 2 3 5 6 7 7 8 9 10 10 11 12 11 11 10 11 12 11 12 13 13 13 12 12 14 15 16 15 15 16 17 17 16 17 17 17 17 17 16 14 13 12 12 13 13 13 13 14
31 31 31 31 30 29 28 26 24 22 21 20 19 17 16 14 13 12 11 9 8 7 6 4 3 2 1 1 2 3 4 4 5 4 3 1 2 4 6 7 8 9 8 8 9 9 10 10 11 11 11 11 11 12 11 12 13 12 12 12 12 14 15 16 15 15 16 17 17 17 17 17 17 17 17 17 17 16 14 13 12 12 13 13 13
32 32 32 32 31 30 28 26 25 23 22 21 20 19 17 16 14 13 11 10 8 6 5 3 2 1 1 2 2 3 5 4 4 3 1 3 5 7 8 9 9 8 8 8 8 8 9 9 10 10 10 11 12 12 12 13 12 12 12 12 13 14 15 15 15 15 16 16 16 16 16 16 17 17 17 17 17 17 16 16 14 14 13 13 13
34 33 33 33 32 30 29 27 26 25 23 23 21 19 18 16 15 13 12 9 7 6 5 3 2 1 1 2 3 4 5 5 3 2 2 5 7 9 10 9 8 7 7 7 6 6 6 7 7 8 9 10 12 12 12 12 12 12 12 13 14 15 15 15 15 15 15 16 16 16 16 16 16 16 16 16 17 17 17 17 17 16 16 14 14
35 35 34 34 32 31 30 28 27 25 24 23 21 20 18 16 14 13 11 10 8 6 5 3 2 1 0 2 3 4 5 4 3 1 4 7 9 9 8 7 6 6 5 5 4 4 5 5 6 6 6 8 11 12 12 13 12 13 13 14 14 15 15 14 15 15 16 16 16 16 16 16 16 16 16 16 16 16 17 17 18 18 18 17 16
37 36 35 34 33 32 30 29 28 26 25 23 22 21 19 17 15 12 11 10 8 6 5 3 2 1 1 3 4 4 4 3 1 3 6 9 10 8 6 5 5 4 3 3 3 4 4 4 5 5 5 6 9 12 12 11 12 13 14 14 14 15 15 15 14 15 16 16 16 16 16 16 16 16 16 16 16 16 17 17 17 18 18 18 18
38 37 36 35 33 32 31 30 29 27 26 24 23 21 20 19 16 14 11 9 9 7 5 4 2 1 2 3 4 3 2 0 2 6 9 10 9 6 5 5 4 4 3 3 3 3 3 4 4 5 4 3 6 8 9 8 8 12 14 14 14 15 15 14 14 15 15 16 16 16 16 16 16 16 16 16 16 17 17 17 17 18 18 18 19
39 39 37 35 33 33 32 31 30 28 27 26 24 22 21 18 17 15 13 10 9 8 6 5 3 1 1 2 2 2 1 2 5 7 9 8 5 4 4 5 4 4 4 3 3 2 2 2 3 4 3 2 3 4 6 6 5 8 11 13 13 14 14 14 14 14 15 15 16 16 16 16 16 16 16 16 17 17 17 17 17 18 18 18 19
41 40 39 36 34 34 34 33 32 30 28 27 26 24 22 20 18 16 15 13 10 9 7 5 4 2 2 1 1 2 3 5 7 8 8 6 5 5 5 6 4 4 4 3 2 2 2 2 3 3 2 2 2 3 4 5 4 5 7 9 11 13 13 14 14 14 14 15 15 16 16 16 16 16 16 17 17 17 17 17 17 18 18 18 18
43 42 39 38 37 36 35 35 33 32 31 30 28 27 25 23 20 18 17 15 12 10 8 6 5 4 4 2 2 4 5 7 9 9 9 9 8 8 7 6 3 3 4 3 3 3 3 4 4 2 2 2 2 3 4 4 3 4 5 7 10 12 13 13 14 14 15 15 15 16 16 16 17 17 17 17 17 18 18 18 18 18 18 18 19
44 43 41 39 38 37 37 36 35 34 32 31 30 28 26 24 21 19 17 16 14 11 8 7 6 5 5 4 5 6 7 9 10 11 12 10 8 7 6 6 4 4 4 4 4 4 3 4 4 3 3 3 3 4 5 5 4 4 5 6 9 12 13 13 14 14 15 15 16 16 16 17 17 18 18 18 18 18 18 18 18 18 19 19 19
45 43 42 41 39 39 38 38 37 35 34 32 30 28 27 25 23 21 19 16 14 11 10 8 6 6 6 5 5 5 7 9 10 9 6 4 4 4 3 5 5 5 5 5 5 5 4 4 5 3 3 3 4 6 6 6 6 6 7 7 9 12 13 13 14 15 15 16 16 16 17 17 17 18 18 19 19 19 19 19 19 19 19 19 19
45 44 43 42 41 41 40 39 39 38 36 34 31 30 28 27 26 24 21 17 14 12 11 9 8 8 6 3 2 2 2 5 9 10 6 4 4 6 4 1 2 2 4 7 6 6 5 6 6 3 2 3 4 5 5 6 7 8 9 9 10 12 13 14 15 16 16 16 17 17 17 17 17 18 18 18 19 19 20 20 20 20 20 20 20
45 45 44 44 43 42 41 41 41 40 38 36 34 33 32 30 28 26 23 20 16 13 12 11 11 9 5 4 2 2 1 3 4 9 9 7 7 8 7 4 1 3 3 6 7 7 6 7 6 3 1 2 3 4 4 5 7 8 9 10 12 13 14 16 17 17 17 17 18 18 18 18 18 18 18 19 20 20 20 21 21 21 21 21 21
47 46 46 45 44 43 43 42 42 41 40 38 37 36 34 33 31 28 25 23 19 15 14 14 12 11 8 5 3 1 3 3 1 4 6 6 8 10 9 5 5 7 6 6 6 6 9 8 4 2 1 1 3 3 3 5 7 8 9 11 14 16 18 19 19 18 18 18 18 18 18 19 19 19 20 20 20 20 21 21 21 21 21 22 22
48 47 46 46 45 45 44 44 43 43 42 40 38 37 36 34 32 30 27 24 21 18 17 17 14 13 13 10 7 5 4 5 2 1 3 6 9 11 10 8 8 9 7 8 7 6 10 9 3 1 1 3 4 3 4 5 6 7 9 12 15 17 20 22 21 20 20 20 19 19 19 19 20 20 21 21 21 21 21 21 21 21 21 21 21
47 47 47 47 46 45 45 44 44 44 43 42 40 39 37 35 33 31 29 26 23 21 21 20 16 14 14 13 11 10 8 7 5 2 1 4 7 10 10 11 11 10 8 10 9 8 10 9 3 1 3 4 4 4 4 5 4 6 9 12 14 17 21 23 22 22 22 21 21 20 20 20 20 20 21 22 22 22 21 21 21 21 21 20 21
47 47 47 47 46 46 46 45 45 44 44 43 42 40 38 35 33 31 29 27 25 24 23 23 20 17 16 14 12 12 12 10 8 6 3 1 3 5 8 11 13 10 8 9 9 9 10 8 2 2 5 5 4 5 5 5 3 4 7 10 13 17 22 24 23 23 23 22 22 21 20 20 20 20 21 22 23 23 22 23 23 22 21 21 21
47 47 47 47 47 47 46 46 46 45 45 44 42 41 39 37 35 34 31 29 27 25 24 25 24 21 20 17 14 12 11 10 10 9 6 4 2 3 5 8 9 9 8 7 6 8 9 6 1 4 5 5 5 6 6 5 2 3 6 9 13 18 24 24 22 22 22 22 23 22 20 20 19 20 21 22 22 22 23 23 23 23 23 22 22
46 47 47 47 47 47 47 47 47 46 45 44 43 41 40 38 36 35 33 31 29 27 25 25 25 24 22 21 19 16 10 7 10 11 7 4 3 3 5 6 5 7 7 5 4 8 7 2 3 5 5 5 6 6 7 6 2 2 6 9 13 19 24 24 22 22 21 21 21 20 19 18 18 19 20 21 21 22 22 23 23 23 23 23 23
45 46 47 47 47 48 47 47 47 46 46 45 44 43 41 39 37 35 34 33 31 29 27 25 25 25 23 23 23 21 15 11 14 18 11 6 4 3 6 9 9 9 6 5 6 8 4 2 4 5 5 6 7 7 8 7 3 2 5 9 14 21 25 24 22 21 19 17 18 17 17 17 17 18 19 19 20 20 21 21 22 23 23 24 24
43 45 47 48 48 48 47 47 47 46 46 45 44 43 41 39 38 36 36 34 32 31 29 27 27 27 26 25 24 22 20 16 16 20 17 13 9 5 6 9 9 9 7 7 8 7 1 5 4 5 6 5 7 9 9 8 5 4 7 11 17 24 26 24 22 20 17 15 16 16 16 16 17 17 18 18 19 19 19 20 21 21 22 23 23
43 46 48 49 48 48 48 48 48 47 47 45 44 43 42 40 39 38 37 35 34 32 31 30 29 28 27 26 24 22 21 18 15 17 18 16 12 6 8 9 7 5 6 7 5 3 5 7 4 5 5 5 8 9 9 8 6 7 10 15 21 26 26 24 22 18 16 16 16 15 16 16 17 17 18 18 18 19 19 20 20 21 21 22 22
47 48 49 48 49 49 49 49 49 48 47 46 45 43 42 41 40 39 38 37 35 33 32 31 30 29 27 26 25 23 22 20 18 19 19 18 16 12 10 8 7 5 4 6 4 2 7 6 1 5 5 6 9 9 9 9 8 10 14 19 24 27 26 24 21 17 16 18 16 16 17 17 17 17 18 18 18 19 19 20 20 21 21 22 22
47 47 47 47 49 49 49 49 49 48 47 46 45 44 43 42 40 39 39 37 35 34 33 31 30 29 28 26 26 25 24 23 21 21 21 19 18 17 13 7 3 3 2 5 6 6 9 7 3 6 8 8 9 9 9 9 10 13 17 22 26 26 24 23 21 18 19 18 16 17 18 18 18 18 18 18 19 19 20 20 21 21 22 22 23
44 45 45 47 49 49 49 49 48 48 47 47 46 45 44 43 41 40 39 38 36 35 34 32 31 30 29 27 26 26 24 24 23 21 21 20 18 17 16 11 6 2 1 1 3 4 8 8 5 7 9 10 11 11 11 11 13 16 21 25 26 25 23 22 22 21 21 20 18 19 19 17 18 19 18 18 18 19 20 21 21 22 23 23 24
42 43 44 45 47 48 48 48 48 48 47 47 46 45 44 43 43 42 40 39 37 36 35 33 32 30 29 27 26 25 24 24 24 22 21 21 20 18 17 14 11 6 1 1 3 4 8 7 6 6 7 8 10 10 11 13 17 21 25 26 25 24 23 23 23 23 23 22 22 22 20 20 20 20 19 18 19 20 20 21 21 22 24 25 25
42 42 42 43 45 46 47 47 47 47 47 47 46 45 44 44 43 42 41 39 37 36 35 34 32 30 29 28 26 25 25 24 24 23 22 21 21 20 17 15 14 11 7 3 3 6 7 6 4 5 6 7 8 10 14 18 22 24 25 24 24 23 23 24 23 24 24 22 23 23 23 23 23 22 20 19 20 21 21 22 23 24 25 26 27
41 41 41 43 44 45 46 46 47 46 46 46 45 45 45 44 44 42 41 40 38 37 36 35 33 32 30 29 28 27 26 25 24 23 23 22 21 20 18 17 16 15 13 9 2 5 6 4 4 7 7 9 11 16 20 23 24 23 23 22 22 23 24 25 25 24 23 23 23 24 24 25 24 23 21 21 22 23 23 24 25 27 27 28 28
41 41 41 43 44 45 46 46 46 46 46 45 45 45 45 44 44 43 42 41 39 39 38 36 34 33 32 31 30 29 27 27 26 25 24 23 21 20 19 18 17 17 17 14 6 7 10 7 7 8 9 12 16 20 22 22 21 21 21 21 22 24 25 25 25 24 23 23 24 25 25 25 24 22 22 23 25 25 25 26 27 28 29 29 30
40 41 42 43 43 44 45 46 46 46 46 46 46 46 45 45 44 44 43 42 41 40 38 37 36 35 34 33 31 30 29 28 27 26 25 24 23 21 20 20 19 19 19 18 12 9 15 16 14 15 16 17 19 19 19 20 19 19 19 20 22 24 24 25 25 24 24 25 25 26 25 24 23 23 23 25 26 26 26 27 28 29 29 29 30
41 42 43 43 43 44 45 46 46 46 46 47 47 47 47 46 45 45 45 44 43 41 39 39 38 36 35 33 32 31 29 29 28 27 26 25 24 24 23 22 21 21 20 21 17 11 15 18 16 16 17 16 16 16 16 18 19 18 18 20 21 22 22 23 25 25 26 27 27 27 27 26 25 25 25 26 26 27 27 27 28 28 28 29 30
42 43 43 43 43 44 44 45 45 46 47 47 48 49 49 49 48 47 47 47 45 44 43 42 40 39 36 35 33 32 31 30 29 28 27 26 26 25 24 23 22 21 21 21 20 16 15 16 14 12 11 11 13 15 16 17 17 16 17 20 20 19 20 21 23 25 26 27 27 26 26 27 27 27 27 26 27 27 28 28 29 28 29 31 32
41 42 43 43 44 44 44 45 46 47 48 48 49 49 50 50 50 49 48 48 47 46 46 45 43 41 39 37 36 34 33 32 31 29 28 28 27 26 25 24 22 21 21 22 22 19 15 13 12 11 10 12 14 15 15 16 16 15 17 18 18 18 19 19 22 24 25 25 24 24 25 25 26 25 25 25 26 27 27 28 29 29 31 33 34
41 41 42 43 44 44 46 46 48 49 49 49 49 49 49 49 49 48 48 48 48 47 46 45 44 43 42 40 39 37 35 34 33 32 31 30 29 27 26 25 23 22 21 21 21 19 15 13 13 14 13 14 15 15 14 14 15 15 16 17 16 17 17 18 21 23 24 25 24 24 25 25 25 25 24 24 25 26 27 28 29 31 33 34 35
41 41 43 44 44 45 46 47 48 48 48 47 48 48 48 48 47 46 46 46 47 46 46 45 45 45 44 42 41 39 39 38 36 35 33 32 30 29 28 26 24 22 21 20 18 16 14 13 12 13 14 14 14 14 12 11 13 15 16 17 16 17 18 19 21 22 22 23 24 24 24 24 24 25 24 24 26 27 27 29 30 32 34 35 36
41 41 42 43 45 46 46 46 46 46 46 46 47 47 47 47 47 46 46 46 45 45 45 45 45 45 45 43 42 41 41 40 39 37 35 33 32 30 29 27 24 23 21 19 16 14 12 11 10 12 14 14 14 12 9 9 10 12 14 16 17 18 20 21 22 24 23 22 22 22 22 22 23 24 25 25 26 26 26 28 31 33 34 35 36
42 42 43 44 44 43 43 44 44 44 44 45 46 46 46 46 46 47 47 46 45 44 44 44 44 44 44 43 43 42 41 40 39 37 36 34 33 31 29 27 25 23 21 18 15 12 10 9 9 10 12 12 11 9 7 7 7 10 13 16 19 21 21 21 22 23 22 20 21 22 21 22 24 26 28 29 27 26 27 30 32 34 34 34 36
42 42 42 42 41 41 41 41 41 42 44 45 47 47 46 46 46 46 46 46 45 45 44 43 43 43 43 42 42 41 40 39 37 36 34 33 32 31 30 28 26 24 21 17 14 11 10 10 9 9 9 10 8 6 5 4 6 11 14 17 19 20 21 22 20 19 19 19 20 20 20 24 28 30 30 29 28 27 29 32 33 34 34 33 34
40 39 39 40 41 41 41 40 40 41 44 45 47 48 49 48 47 46 44 44 44 44 43 42 41 41 41 42 41 40 39 38 36 35 33 31 30 29 27 27 27 25 22 18 14 12 12 12 11 9 8 8 7 5 5 6 8 12 15 16 17 18 21 20 17 15 15 17 21 24 27 30 32 32 29 27 27 27 29 32 32 31 32 32 33
37 37 38 40 41 41 40 40 41 42 44 45 46 47 49 49 48 46 45 44 43 42 42 42 42 41 41 41 40 39 38 38 36 34 32 30 29 27 25 24 25 24 22 19 16 15 15 14 12 10 9 9 7 5 6 8 10 12 13 14 16 18 18 16 15 13 13 20 28 32 34 33 31 30 26 24 27 28 29 31 30 30 31 33 35
36 37 39 41 41 41 40 41 42 43 43 44 45 46 48 49 49 47 46 44 44 43 43 42 42 42 41 41 41 39 38 38 36 33 31 29 27 26 24 23 22 21 18 16 15 16 16 16 15 13 10 8 6 6 7 9 11 11 12 14 15 16 17 16 16 18 21 30 35 34 33 31 29 30 26 23 28 32 32 32 31 31 33 33 34
34 36 38 39 40 40 40 40 41 42 42 42 43 45 47 48 50 48 45 44 44 44 43 43 42 42 42 42 41 39 37 36 35 33 31 28 25 24 23 23 22 20 17 15 13 13 15 16 16 14 11 8 6 8 9 10 11 12 12 13 14 15 16 15 18 26 33 36 34 33 31 25 23 29 30 28 33 37 35 33 31 30 33 34 33
32 35 37 38 38 38 39 39 39 39 40 41 41 43 45 46 48 48 45 42 42 43 42 42 42 42 44 45 43 41 38 36 35 35 33 30 28 26 25 25 23 22 20 18 16 15 16 16 17 16 13 10 9 10 10 9 10 12 12 12 13 15 18 20 25 34 37 32 27 27 26 20 19 29 37 36 37 38 35 33 31 30 34 37 37
32 34 35 36 36 36 37 37 37 37 39 39 39 41 43 43 44 45 43 41 39 39 39 40 40 41 44 46 45 43 41 38 37 37 35 33 31 29 29 28 26 24 22 22 20 20 20 19 19 17 13 10 10 10 9 8 9 12 13 14 17 20 24 27 30 33 31 27 22 18 21 24 24 30 40 41 37 37 36 35 37 37 37 40 41
31 31 32 33 34 35 35 36 37 36 37 37 38 39 40 40 40 41 42 40 38 38 38 39 39 38 40 43 43 41 40 38 37 37 36 35 33 33 32 30 27 25 24 24 21 20 20 19 17 14 10 9 9 9 9 10 11 13 15 18 22 23 23 23 25 27 25 23 21 18 22 30 27 27 38 43 38 39 42 41 41 39 37 37 38
28 29 31 32 33 34 34 35 36 35 34 35 38 38 37 39 40 40 40 39 37 36 36 37 37 37 38 41 43 41 39 39 37 35 34 34 34 34 32 30 27 24 23 22 19 18 18 17 14 12 10 10 10 10 11 10 9 11 15 19 22 21 18 15 15 20 23 24 25 21 20 25 26 25 34 45 44 41 42 43 40 36 34 36 37
28 29 31 31 31 32 33 34 35 35 34 34 36 36 36 39 40 40 39 37 35 34 33 33 34 35 35 38 41 41 40 39 36 32 31 32 35 35 33 30 27 24 24 22 20 17 16 15 14 13 11 11 11 12 12 11 10 12 15 19 21 19 16 13 13 20 25 23 20 16 12 19 25 25 30 40 46 44 40 36 36 35 35 41 44
28 29 29 29 30 31 32 33 34 34 33 33 34 35 36 37 39 40 39 37 35 34 33 32 32 32 32 34 37 39 39 37 35 31 30 32 35 36 33 28 25 24 25 23 21 19 18 17 16 15 14 13 12 13 15 15 15 17 18 19 18 15 15 16 15 15 15 12 11 12 14 19 24 26 26 24 26 36 41 37 36 40 42 46 48
Wind_Direction
202 199 198 196 195 195 194 192 191 191 186 183 184 176 168 164 161 159 155 152 149 146 142 138 132 121 110 93 64 10 353 342 336 335 335 338 340 356 21 60 83 117 126 96 69 59 53 50 48 46 46 45 41 38 40 41 39 40 42 46 46 41 36 33 33 33 31 30 29 28 27 24 21 16 7 354 342 336 331 325 319 313 310 312 316
204 202 200 198 197 196 195 194 192 191 187 181 180 176 169 165 163 160 156 154 152 148 144 143 137 121 100 70 26 346 338 333 330 329 329 336 347 18 59 81 96 112 124 111 86 64 56 53 48 45 45 43 37 36 40 39 35 37 43 49 47 39 33 32 32 31 30 29 29 29 27 23 19 17 15 8 357 348 342 336 332 326 319 314 313
207 205 202 201 199 197 197 195 193 190 186 181 176 174 171 166 163 161 158 158 156 150 148 150 143 126 83 32 4 343 330 326 328 327 330 343 25 77 98 103 105 109 113 116 102 74 61 55 49 47 47 43 36 36 39 35 32 37 44 48 44 35 31 31 32 30 27 27 27 27 25 23 19 16 15 13 8 2 356 351 348 342 332 323 318
210 208 205 203 201 199 198 195 193 189 184 181 177 174 173 169 166 164 163 162 161 152 151 153 142 125 72 15 351 333 323 325 326 328 341 28 99 112 117 116 113 109 105 107 103 86 71 59 51 47 45 41 37 35 34 30 31 38 43 44 40 32 30 31 32 28 25 26 25 25 24 22 20 16 14 13 12 9 6 1 356 349 341 335 330
212 211 208 206 204 201 199 196 193 189 184 182 181 178 176 175 171 169 169 167 165 157 156 159 144 119 45 350 332 319 319 324 324 330 26 102 121 127 126 121 115 110 103 97 94 88 78 64 55 50 48 43 36 32 29 28 31 36 37 37 35 29 28 30 30 26 24 25 24 22 21 20 18 16 14 12 12 11 8 5 0 355 350 344 340
213 212 210 208 206 203 201 197 194 191 186 185 185 182 180 181 178 175 174 172 171 165 165 168 153 128 26 338 322 315 317 318 317 333 111 127 131 131 125 119 114 109 102 92 83 77 69 59 54 53 56 47 36 30 27 29 31 32 31 31 30 27 25 27 27 25 23 21 19 18 17 16 16 15 13 12 11 11 9 7 5 3 359 353 348
214 214 212 210 207 204 202 198 195 193 189 187 188 186 185 186 185 183 181 177 177 171 170 173 163 155 6 344 328 320 318 314 308 156 137 139 140 134 122 114 112 111 105 89 72 62 54 47 42 42 53 50 39 33 31 32 33 31 29 28 27 25 24 26 26 22 18 16 14 15 15 15 16 15 13 11 11 10 9 8 6 5 3 360 355
216 216 214 211 209 206 204 200 197 196 192 190 191 191 190 189 187 189 189 183 180 178 177 177 167 141 5 347 336 327 319 310 265 152 148 148 141 125 111 110 111 118 118 99 75 70 60 43 34 28 35 49 45 37 31 33 35 31 28 27 26 26 27 27 24 18 14 13 13 14 14 15 15 14 11 9 9 9 9 8 7 5 4 1 359
217 217 215 213 211 208 205 201 200 199 196 194 193 194 195 194 191 189 193 193 188 185 182 176 170 147 11 349 338 335 325 283 149 146 148 149 137 111 93 92 92 105 118 113 96 84 67 41 23 8 5 33 50 37 22 23 35 33 28 28 30 30 29 26 21 16 13 14 14 14 13 13 12 10 8 6 5 6 7 7 5 4 2 0 359
218 217 216 214 212 210 207 204 203 201 199 197 196 195 196 197 196 192 190 193 193 188 184 176 163 134 38 3 346 359 55 127 137 142 146 145 128 97 86 84 83 98 107 104 94 74 45 22 359 347 346 16 43 21 360 357 22 35 30 30 31 29 26 22 20 17 16 17 15 14 13 11 8 6 5 3 3 3 4 4 2 0 359 358 357
218 218 216 214 213 212 209 206 205 203 200 200 198 196 195 194 196 195 189 187 191 186 179 174 158 130 84 53 37 89 121 130 132 134 135 127 111 103 97 90 86 96 97 79 62 28 7 357 345 347 360 30 24 355 345 351 13 33 29 30 30 27 24 22 21 20 19 17 16 13 11 9 7 5 2 1 1 1 1 1 359 357 356 355 355
218 217 215 214 213 212 210 208 207 204 203 202 201 200 198 195 195 196 192 186 184 183 177 168 153 125 102 96 99 120 135 138 135 127 116 110 111 112 98 77 77 99 83 55 28 4 356 356 355 14 41 40 17 1 360 7 26 37 31 36 36 29 25 24 24 22 21 18 15 12 10 8 6 4 1 359 359 359 359 358 356 355 353 353 353
217 216 215 214 214 213 211 210 208 206 206 207 205 203 200 197 194 191 192 187 180 179 175 164 152 131 118 104 100 131 152 151 142 127 112 109 114 117 93 59 75 108 67 36 14 1 358 9 19 36 32 17 9 11 16 21 38 49 42 50 48 35 27 27 26 24 21 17 14 12 10 8 5 3 360 358 357 356 355 355 354 353 352 351 350
217 216 215 214 214 213 212 211 210 208 208 207 206 203 200 198 195 190 188 186 182 179 175 169 158 148 140 112 87 120 165 174 170 153 120 111 138 148 110 55 84 109 57 30 16 9 15 25 25 19 6 3 9 14 23 33 44 51 50 59 57 42 31 28 25 22 19 16 14 12 9 7 3 1 359 357 356 353 353 352 351 351 350 349 348
217 216 215 215 215 214 213 212 211 210 208 206 204 203 202 200 198 197 190 183 181 179 179 179 168 150 127 116 102 88 176 208 214 222 252 268 213 204 215 11 82 129 31 29 24 25 32 18 4 347 345 2 17 24 34 42 50 55 56 59 57 47 35 27 23 20 18 15 13 10 7 4 1 360 357 354 352 350 349 348 347 346 346 345 344
218 217 216 216 216 216 215 213 212 212 210 208 205 204 205 202 200 201 196 187 179 177 182 186 181 170 129 98 107 93 235 247 229 237 257 260 228 215 216 232 284 261 315 11 20 26 22 2 350 330 320 13 49 56 53 55 67 70 61 52 47 43 35 27 22 18 15 11 8 5 2 359 357 354 351 348 346 344 342 342 341 340 340 339 338
218 218 218 217 217 217 216 215 213 213 212 210 208 207 207 205 203 202 202 200 190 179 181 185 189 191 178 147 122 144 226 219 175 251 243 218 204 201 206 233 283 273 280 331 351 3 3 359 352 324 268 125 104 90 80 84 86 76 60 46 40 33 26 21 17 13 9 4 2 359 357 354 352 349 346 344 342 340 339 338 338 337 336 336 335
218 218 218 218 218 217 217 216 215 214 213 213 211 210 209 208 207 205 206 208 201 186 181 185 187 192 195 196 199 203 188 159 147 260 233 209 202 206 223 252 275 272 277 311 320 329 351 1 358 318 173 149 127 115 108 108 97 73 52 40 35 26 18 12 9 8 5 1 358 356 353 350 348 345 343 342 340 339 337 336 336 335 334 333 332
217 218 218 218 218 218 218 217 217 216 215 214 212 213 212 211 210 209 209 209 204 194 187 185 184 188 197 202 201 197 181 167 169 169 227 243 221 217 236 250 260 269 283 304 312 319 342 356 349 334 153 152 133 134 131 121 102 64 44 33 29 19 9 6 5 5 1 358 356 353 350 346 345 343 341 340 339 338 337 335 334 333 332 331 329
217 217 218 218 218 218 218 218 217 217 217 216 215 214 214 212 210 209 209 209 209 205 196 190 189 188 188 191 192 188 185 184 185 171 139 214 246 236 237 241 251 266 286 299 307 319 337 352 356 137 149 156 146 148 145 137 112 52 34 23 18 7 1 1 2 360 357 355 353 349 346 344 343 342 340 339 338 337 335 333 332 331 330 328 326
216 217 217 218 218 218 218 218 218 218 218 218 217 216 215 213 211 209 209 209 211 211 205 200 199 196 189 185 181 176 180 184 187 181 156 166 234 257 245 247 255 265 277 290 312 326 333 350 82 145 147 158 161 159 159 162 146 41 20 9 5 357 355 356 355 353 353 353 352 349 347 345 343 340 338 337 335 334 332 330 329 327 326 325 324
214 216 217 217 218 218 219 219 219 219 219 218 218 217 216 215 214 213 211 210 209 209 210 209 206 203 199 192 181 170 169 173 183 184 170 176 199 216 235 243 257 275 281 276 314 335 328 340 133 153 158 165 173 171 173 184 189 16 359 355 352 348 348 349 348 350 352 351 350 349 346 341 337 334 333 333 332 331 329 327 325 324 323 322 322
213 214 216 218 218 218 219 220 220 219 219 219 219 219 218 216 216 214 213 213 211 209 209 209 206 204 203 201 197 192 193 197 196 191 182 178 174 182 221 232 252 267 278 279 312 335 323 164 142 159 164 169 183 182 186 202 217 304 333 338 339 340 342 343 345 350 350 344 343 343 338 334 330 330 330 330 329 327 326 324 322 321 321 320 320
213 214 216 216 216 217 218 218 219 219 220 220 220 220 219 218 216 215 214 214 212 210 208 206 205 204 204 207 209 209 209 213 210 201 198 197 185 156 176 206 246 257 259 278 313 335 173 145 130 161 166 179 194 192 197 212 230 276 312 327 332 336 339 340 345 350 345 336 336 334 330 328 327 326 326 326 325 324 322 322 320 319 319 318 318
212 214 215 215 215 215 216 217 219 220 221 221 221 221 220 219 217 216 216 214 213 212 211 209 208 208 209 208 208 210 211 214 214 205 202 199 190 165 163 187 217 242 260 268 307 357 149 140 109 156 173 194 200 203 212 219 239 279 307 322 328 333 335 337 344 347 339 334 332 328 326 326 324 324 323 322 322 321 320 320 319 318 317 316 315
213 215 216 215 215 216 217 218 220 221 221 222 222 221 221 220 219 218 217 216 215 214 214 213 211 212 212 210 208 208 209 211 211 205 201 196 194 185 168 178 205 213 229 225 248 276 173 170 134 168 193 216 210 217 225 228 253 284 305 318 325 331 332 335 344 344 336 335 331 326 326 325 323 323 322 321 321 320 320 319 318 318 317 316 315
215 215 216 215 216 217 218 219 220 220 221 221 221 221 220 220 220 220 219 217 216 215 214 213 213 212 211 211 210 208 208 210 209 208 208 206 207 201 183 166 187 208 183 189 227 239 196 197 200 178 200 220 221 230 234 242 267 287 303 314 322 328 330 336 346 344 337 335 327 325 327 325 323 323 321 321 321 320 321 319 319 319 317 316 316
217 217 216 217 217 216 217 219 219 220 220 220 220 220 219 219 219 219 219 218 216 216 215 214 214 213 211 210 211 209 209 210 209 210 211 210 213 211 199 183 167 191 322 178 226 220 183 182 173 179 203 213 216 225 235 254 277 291 303 312 320 326 332 341 346 343 341 338 330 329 327 321 322 323 320 320 321 321 322 321 320 320 319 318 317
218 217 217 217 217 216 217 218 218 219 219 219 219 219 218 218 219 219 219 218 217 217 216 215 215 214 212 211 211 211 209 209 210 209 209 210 212 211 207 197 178 166 142 268 243 193 166 171 165 170 196 209 215 228 248 274 290 299 305 312 320 328 336 343 344 342 343 340 337 337 333 326 327 326 322 321 322 322 322 322 322 321 320 319 317
219 218 217 217 217 216 216 217 217 218 218 218 218 218 217 218 218 219 219 218 217 216 216 217 215 214 213 212 212 212 211 210 210 209 208 210 211 209 208 205 195 183 165 163 257 227 192 199 205 192 206 222 237 262 280 292 298 301 305 314 323 332 338 340 340 342 343 342 342 342 338 335 335 330 325 323 324 324 324 323 323 322 320 319 317
219 218 217 216 216 215 215 216 217 216 217 217 216 216 216 216 217 217 218 217 217 216 216 216 215 214 213 213 212 211 211 210 209 209 208 209 211 210 208 205 201 197 182 162 198 256 223 204 202 202 216 238 263 287 295 298 300 303 309 319 328 335 337 336 338 342 343 343 344 343 341 339 337 331 327 327 327 326 325 324 323 322 321 319 318
221 218 218 217 216 215 215 215 215 215 215 215 215 215 215 215 216 216 216 216 216 216 216 215 215 215 214 214 213 211 210 209 208 208 207 208 210 210 209 206 200 199 191 175 179 250 244 231 224 226 239 260 276 288 294 296 300 306 315 323 331 335 335 337 339 342 344 344 343 343 341 339 334 328 326 327 327 327 325 324 323 322 321 320 318
223 220 219 218 217 216 215 214 214 214 213 213 213 213 213 213 214 214 215 215 215 215 215 214 214 214 214 213 213 212 210 209 208 207 207 208 209 209 208 205 201 199 197 188 189 238 254 249 248 254 264 275 280 283 287 291 299 310 318 326 332 334 336 338 340 342 344 342 341 341 339 336 330 326 325 325 325 325 323 322 321 320 318 317 316
226 223 221 219 218 217 215 214 214 213 213 213 212 212 211 211 211 212 213 213 213 212 212 213 213 213 213 213 213 212 210 209 209 209 209 208 207 208 207 205 205 204 203 200 197 214 250 258 259 263 271 277 281 283 285 287 298 312 319 326 332 334 336 339 338 340 341 340 341 340 337 333 329 326 325 324 324 324 322 320 319 317 315 314 313
227 225 223 220 219 217 215 214 213 213 213 213 212 211 211 210 210 210 211 211 211 210 210 211 212 211 211 211 212 211 209 208 210 210 211 210 209 209 209 209 209 208 207 209 207 209 233 255 264 267 272 277 280 285 287 288 293 302 311 321 330 332 335 336 334 334 336 337 337 334 330 328 327 327 326 325 325 323 321 320 318 315 313 312 310
227 226 224 222 220 217 215 214 213 213 214 213 212 211 211 211 210 210 210 210 210 210 211 211 210 210 210 210 211 211 208 207 208 210 210 210 212 212 212 212 212 212 211 211 214 215 221 240 256 263 271 280 284 287 289 289 291 296 305 316 323 327 330 331 330 330 331 331 327 322 320 321 321 322 321 320 321 321 318 316 314 312 310 308 306
227 226 224 221 219 217 215 215 214 214 214 213 212 211 211 211 210 210 209 209 210 210 210 210 210 210 210 210 210 209 207 206 207 209 210 210 212 213 215 215 213 213 212 212 215 218 219 232 251 267 277 283 284 285 285 288 295 303 311 317 321 324 325 324 325 326 326 324 321 319 321 321 322 321 319 316 315 314 312 310 308 306 304 303 302
228 226 224 222 219 218 217 217 216 215 214 213 213 212 211 211 210 210 210 210 210 209 209 210 210 211 211 211 211 209 208 208 208 209 210 210 212 214 215 215 213 211 210 210 212 213 219 231 250 268 277 279 277 277 284 296 305 313 318 321 322 321 320 320 320 320 319 318 318 320 321 322 322 321 317 313 310 307 307 305 302 301 300 298 297
228 226 225 223 221 220 219 218 217 216 214 214 214 213 212 210 209 209 209 209 209 209 209 209 210 211 211 211 211 211 211 212 212 211 211 210 211 214 215 213 211 208 207 208 208 210 219 232 247 260 269 274 274 276 296 315 319 322 322 318 317 317 319 319 318 317 318 318 317 318 319 317 317 316 313 308 305 303 302 300 298 298 297 295 295
230 228 226 225 224 221 220 219 218 217 216 215 214 213 212 210 209 208 208 208 207 207 208 209 209 210 210 211 212 213 214 214 214 214 214 212 210 210 212 211 209 208 205 203 202 206 216 229 241 253 261 270 274 283 308 326 328 327 322 315 311 312 315 316 316 318 320 318 316 316 319 319 316 315 312 308 306 304 301 299 299 298 297 295 294
231 229 227 226 224 221 220 219 218 217 216 216 215 213 211 210 209 209 208 207 206 206 206 206 207 208 209 210 211 213 214 214 215 216 216 216 214 211 210 208 207 205 201 198 197 200 209 221 235 249 256 262 271 287 309 322 319 316 315 313 309 309 313 314 313 317 317 314 314 314 316 316 313 311 310 307 307 307 304 302 301 300 300 297 294
232 230 227 225 223 221 219 218 217 217 218 218 217 215 213 211 209 208 208 208 207 205 204 203 204 206 207 208 209 211 212 212 213 215 215 216 217 218 216 213 210 204 197 192 191 196 204 213 227 241 248 256 269 285 295 305 312 312 313 314 310 312 318 316 315 322 321 317 319 315 312 313 312 309 308 307 307 306 304 303 302 301 299 296 294
232 229 227 225 223 221 218 217 217 218 219 219 218 216 215 213 210 208 207 207 206 206 205 203 202 203 204 206 207 208 209 209 210 211 212 213 214 215 217 218 215 209 201 193 188 194 204 213 224 234 240 251 266 277 288 301 310 311 311 311 311 314 318 317 316 320 317 317 319 314 310 314 313 307 306 308 308 307 304 303 302 300 297 294 294
233 229 227 226 224 221 218 217 218 219 220 220 219 217 215 214 212 210 208 207 206 205 205 204 203 202 201 203 204 205 206 206 206 205 206 208 211 211 211 210 209 210 210 203 193 192 201 211 220 229 236 246 256 264 283 299 306 307 307 309 309 309 308 308 308 305 305 313 316 311 308 313 314 309 307 307 308 307 305 304 302 299 296 294 294
234 230 228 226 224 222 218 217 218 219 220 220 219 218 215 214 213 212 209 208 207 206 205 204 203 201 200 200 199 201 202 202 202 201 200 199 201 203 204 202 203 206 207 205 202 203 210 217 224 230 235 235 242 263 282 293 295 294 297 302 304 303 303 306 305 301 303 310 314 309 306 311 316 312 309 308 309 308 306 306 303 299 298 297 294
234 231 230 227 225 223 220 219 219 219 220 220 218 217 215 213 213 212 210 209 208 207 206 205 203 202 202 200 198 198 199 199 199 199 196 193 191 192 196 199 202 204 203 203 208 214 220 224 228 233 235 236 251 274 285 286 283 283 287 299 308 309 306 303 300 299 301 307 312 309 303 307 322 316 308 309 311 309 308 307 304 299 298 298 295
235 233 231 229 227 224 222 220 220 220 220 219 217 216 214 212 212 212 210 209 208 208 207 206 204 204 204 202 200 198 198 197 198 198 195 191 189 190 195 200 203 204 203 204 205 210 216 222 227 233 241 254 267 275 281 284 283 285 289 294 298 301 303 302 299 298 301 307 313 308 296 301 319 316 307 309 312 308 306 306 303 300 298 297 296
238 236 234 232 229 227 224 221 221 221 221 218 215 213 210 208 208 209 209 208 207 206 206 205 204 204 203 202 201 199 198 196 198 199 196 192 189 191 195 199 201 203 205 207 208 211 216 219 225 235 248 263 266 266 276 282 282 286 290 288 290 297 304 304 299 298 303 309 312 305 294 299 313 315 307 308 310 306 304 304 303 302 299 296 296
240 236 235 233 231 228 225 222 221 221 220 217 214 210 206 204 205 206 206 206 206 205 205 204 202 202 202 203 203 201 199 198 197 196 195 193 191 193 196 197 199 203 208 210 209 212 219 222 226 234 242 251 258 265 272 274 278 287 291 291 294 300 305 302 297 298 302 305 308 305 291 294 310 315 308 307 308 304 303 304 304 304 301 296 295
245 240 237 234 232 229 226 224 222 221 219 216 212 207 203 202 204 204 202 201 202 203 203 202 202 201 201 203 204 203 201 199 196 192 190 192 193 194 195 194 195 202 206 205 205 212 217 217 216 220 234 248 254 257 258 259 270 283 286 289 292 293 290 284 285 298 302 303 311 316 296 294 309 315 311 310 308 303 301 303 304 303 301 299 297
250 244 239 234 232 230 227 226 224 221 220 216 209 204 201 200 203 203 199 197 199 200 199 198 199 199 200 202 204 205 204 200 194 189 187 191 195 195 192 190 193 201 204 203 207 211 206 204 211 224 240 248 247 250 259 267 279 289 291 293 291 284 279 276 278 296 306 302 311 323 312 304 309 311 310 313 310 305 304 304 304 303 301 299 298